Weather History for Mammoth, CA

Change the Weather History Date:

Monday, October 14, 2013

  Actual Average Record
Temperature  
Mean Temperature 40 °F -  
Max Temperature 60 °F 59 °F 77 °F (2011)
Min Temperature 19 °F 38 °F 19 °F (1999)
Degree Days  
Heating Degree Days 26    
Moisture  
Dew Point 19 °F    
Average Humidity 55    
Maximum Humidity 93    
Minimum Humidity 14    
Precipitation  
Precipitation 0.00 in - - ()
Sea Level Pressure  
Sea Level Pressure 30.24 in    
Wind  
Wind Speed 6 mph (WSW)    
Max Wind Speed 12 mph    
Max Gust Speed -    
Visibility 10 miles    
Events      
Averages and records for this station are not official NWS values.
T = Trace of Precipitation, MM = Missing Value Source: NWS Daily Summary

Daily Weather History Graph

Daily Weather History Graph

Search for Another Location

Airport:

Trip Planner

Search our weather history database for the weather conditions in past years. The results will help you decide how hot, cold, wet, or windy it might be!

Date:

Astronomy

Oct. 14, 2013 Rise Set
Actual Time 7:02 AM PDT 6:18 PM PDT
Civil Twilight 6:36 AM PDT 6:45 PM PDT
Nautical Twilight 6:06 AM PDT 7:15 PM PDT
Astronomical Twilight 5:35 AM PDT 7:45 PM PDT
Moon 3:47 PM PDT (10/14) 2:29 AM PDT (10/14)
Length of Visible Light 12h 08m
Length of Day
11h 16m
Waxing Gibbous, 80% of the Moon is Illuminated
Oct 14
Waxing Gibbous
Oct 18
Full
Oct 26
Last Quarter
Nov 3
New
Nov 9
First Quarter

Hourly Weather History & Observations

Time (PDT) Temp. Windchill Dew Point Humidity Pressure Visibility Wind Dir Wind Speed Gust Speed Precip Events Conditions
12:15 AM 30.2 °F 21.3 °F 24.8 °F 80% 30.23 in 10.0 mi West 10.4 mph - N/A   Clear
12:35 AM 30.2 °F 21.9 °F 24.8 °F 80% 30.24 in 10.0 mi West 9.2 mph - N/A   Clear
12:55 AM 28.4 °F 21.2 °F 24.8 °F 86% 30.24 in 10.0 mi WNW 6.9 mph - N/A   Clear
1:15 AM 28.4 °F 19.1 °F 24.8 °F 86% 30.24 in 10.0 mi West 10.4 mph - N/A   Clear
1:35 AM 28.4 °F 18.5 °F 24.8 °F 86% 30.25 in 10.0 mi West 11.5 mph - N/A   Clear
1:55 AM 26.6 °F 16.8 °F 24.8 °F 93% 30.24 in 10.0 mi West 10.4 mph - N/A   Clear
2:15 AM 28.4 °F 21.2 °F 24.8 °F 86% 30.25 in 10.0 mi West 6.9 mph - N/A   Clear
2:35 AM 24.8 °F 19.1 °F 23.0 °F 93% 30.25 in 10.0 mi NW 4.6 mph - N/A   Clear
2:55 AM 26.6 °F 20.0 °F 24.8 °F 93% 30.24 in 10.0 mi WNW 5.8 mph - N/A   Clear
3:15 AM 24.8 °F 20.5 °F 23.0 °F 93% 30.24 in 10.0 mi NNW 3.5 mph - N/A   Clear
3:35 AM 24.8 °F 15.3 °F 23.0 °F 93% 30.23 in 10.0 mi West 9.2 mph - N/A   Clear
3:55 AM 24.8 °F 16.9 °F 23.0 °F 93% 30.23 in 10.0 mi WNW 6.9 mph - N/A   Clear
4:15 AM 24.8 °F 20.5 °F 21.2 °F 86% 30.24 in 10.0 mi NW 3.5 mph - N/A   Clear
4:35 AM 23.0 °F - 21.2 °F 93% 30.24 in 10.0 mi Calm Calm - N/A   Clear
4:55 AM 23.0 °F - 19.4 °F 86% 30.24 in 10.0 mi North - - N/A   Clear
5:15 AM 23.0 °F - 21.2 °F 93% 30.24 in 10.0 mi North - - N/A   Clear
5:35 AM 23.0 °F - 19.4 °F 86% 30.25 in 10.0 mi Calm Calm - N/A   Clear
5:55 AM 21.2 °F 13.6 °F 19.4 °F 93% 30.25 in 10.0 mi NW 5.8 mph - N/A   Clear
6:15 AM 21.2 °F 13.6 °F 17.6 °F 86% 30.26 in 10.0 mi NW 5.8 mph - N/A   Clear
6:35 AM 19.4 °F - 17.6 °F 93% 30.26 in 10.0 mi Calm Calm - N/A   Clear
6:55 AM 21.2 °F 16.4 °F 15.8 °F 80% 30.27 in 10.0 mi NNW 3.5 mph - N/A   Clear
7:15 AM 19.4 °F 14.3 °F 15.8 °F 86% 30.27 in 10.0 mi North 3.5 mph - N/A   Clear
7:35 AM 19.4 °F 12.8 °F 17.6 °F 93% 30.27 in 10.0 mi NNW 4.6 mph - N/A   Clear
7:55 AM 23.0 °F - 17.6 °F 80% 30.28 in 10.0 mi North - - N/A   Clear
8:15 AM 28.4 °F 24.6 °F 19.4 °F 69% 30.28 in 10.0 mi North 3.5 mph - N/A   Clear
8:35 AM 30.2 °F - 21.2 °F 69% 30.28 in 10.0 mi Calm Calm - N/A   Clear
8:55 AM 33.8 °F - 21.2 °F 60% 30.28 in 10.0 mi Calm Calm - N/A   Clear
9:15 AM 37.4 °F 33.8 °F 24.8 °F 60% 30.28 in 10.0 mi SE 4.6 mph - N/A   Clear
9:35 AM 39.2 °F 37.0 °F 26.6 °F 61% 30.28 in 10.0 mi SE 3.5 mph - N/A   Clear
9:55 AM 39.2 °F 34.2 °F 26.6 °F 61% 30.28 in 10.0 mi SE 6.9 mph - N/A   Clear
10:15 AM 41.0 °F 39.0 °F 26.6 °F 57% 30.28 in 10.0 mi SE 3.5 mph - N/A   Clear
10:35 AM 42.8 °F 41.1 °F 26.6 °F 53% 30.28 in 10.0 mi SE 3.5 mph - N/A   Clear
10:55 AM 46.4 °F 44.3 °F 24.8 °F 43% 30.28 in 10.0 mi SE 4.6 mph - N/A   Clear
11:15 AM 48.2 °F - 23.0 °F 37% 30.28 in 10.0 mi ESE 4.6 mph - N/A   Clear
11:35 AM 50.0 °F - 21.2 °F 32% 30.27 in 10.0 mi SE 4.6 mph - N/A   Clear
11:55 AM 50.0 °F - 17.6 °F 28% 30.27 in 10.0 mi SE 3.5 mph - N/A   Clear
12:15 PM 51.8 °F - 14.0 °F 22% 30.26 in 10.0 mi Calm Calm - N/A   Clear
12:35 PM 53.6 °F - 14.0 °F 21% 30.26 in 10.0 mi SSE 5.8 mph - N/A   Clear
12:55 PM 53.6 °F - 10.4 °F 18% 30.25 in 10.0 mi SE 5.8 mph - N/A   Clear
1:15 PM 53.6 °F - 8.6 °F 16% 30.23 in 10.0 mi SSW 8.1 mph - N/A   Clear
1:35 PM 55.4 °F - 8.6 °F 15% 30.23 in 10.0 mi Calm Calm - N/A   Clear
1:55 PM 55.4 °F - 8.6 °F 15% 30.22 in 10.0 mi South 8.1 mph - N/A   Clear
2:15 PM 59.0 °F - 10.4 °F 15% 30.21 in 10.0 mi Calm Calm - N/A   Clear
2:35 PM 59.0 °F - 10.4 °F 15% 30.21 in 10.0 mi East 3.5 mph - N/A   Clear
2:55 PM 59.0 °F - 8.6 °F 14% 30.20 in 10.0 mi WSW 3.5 mph - N/A   Clear
3:15 PM 59.0 °F - 10.4 °F 15% 30.20 in 10.0 mi SE 6.9 mph - N/A   Clear
3:35 PM 60.8 °F - 12.2 °F 15% 30.19 in 10.0 mi SE 5.8 mph - N/A   Clear
3:55 PM 59.0 °F - 15.8 °F 19% 30.19 in 10.0 mi SE 8.1 mph - N/A   Clear
4:15 PM 59.0 °F - 19.4 °F 22% 30.19 in 10.0 mi ESE 11.5 mph - N/A   Clear
4:35 PM 57.2 °F - 21.2 °F 25% 30.19 in 10.0 mi SE 8.1 mph - N/A   Clear
4:55 PM 57.2 °F - 21.2 °F 25% 30.19 in 10.0 mi ESE 9.2 mph - N/A   Clear
5:15 PM 55.4 °F - 21.2 °F 26% 30.19 in 10.0 mi ESE 11.5 mph - N/A   Clear
5:35 PM 53.6 °F - 19.4 °F 26% 30.19 in 10.0 mi ESE 8.1 mph - N/A   Clear
5:55 PM 50.0 °F - 19.4 °F 30% 30.20 in 10.0 mi ESE 6.9 mph - N/A   Clear
6:15 PM 48.2 °F - 19.4 °F 32% 30.20 in 10.0 mi Calm Calm - N/A   Clear
6:35 PM 48.2 °F - 19.4 °F 32% 30.20 in 10.0 mi ESE 5.8 mph - N/A   Clear
6:55 PM 46.4 °F 44.3 °F 17.6 °F 32% 30.20 in 10.0 mi SSE 4.6 mph - N/A   Clear
7:15 PM 44.6 °F 43.1 °F 17.6 °F 34% 30.21 in 10.0 mi South 3.5 mph - N/A   Clear
7:35 PM 44.6 °F - 17.6 °F 34% 30.22 in 10.0 mi Calm Calm - N/A   Clear
7:55 PM 44.6 °F - 15.8 °F 31% 30.22 in 10.0 mi Calm Calm - N/A   Clear
8:15 PM 42.8 °F 39.3 °F 15.8 °F 34% 30.23 in 10.0 mi NW 5.8 mph - N/A   Clear
8:35 PM 39.2 °F 35.9 °F 17.6 °F 42% 30.23 in 10.0 mi West 4.6 mph - N/A   Clear
8:55 PM 39.2 °F 33.0 °F 19.4 °F 45% 30.25 in 10.0 mi West 9.2 mph - N/A   Clear
9:15 PM 39.2 °F 34.2 °F 19.4 °F 45% 30.25 in 10.0 mi WNW 6.9 mph - N/A   Clear
9:35 PM 37.4 °F 32.8 °F 21.2 °F 52% 30.25 in 10.0 mi West 5.8 mph - N/A   Clear
9:55 PM 33.8 °F - 19.4 °F 56% 30.26 in 10.0 mi Calm Calm - N/A   Clear
10:15 PM 35.6 °F 32.8 °F 21.2 °F 56% 30.26 in 10.0 mi NW 3.5 mph - N/A   Clear
10:35 PM 33.8 °F 28.6 °F 21.2 °F 60% 30.26 in 10.0 mi NW 5.8 mph - N/A   Clear
10:55 PM 33.8 °F 28.6 °F 23.0 °F 65% 30.26 in 10.0 mi West 5.8 mph - N/A   Clear
11:15 PM 33.8 °F 28.6 °F 23.0 °F 65% 30.26 in 10.0 mi WNW 5.8 mph - N/A   Clear
11:35 PM 33.8 °F 25.8 °F 23.0 °F 65% 30.26 in 10.0 mi West 10.4 mph - N/A   Clear
11:55 PM 33.8 °F 27.0 °F 23.0 °F 65% 30.25 in 10.0 mi West 8.1 mph - N/A   Clear